Temperature
14 13 13 13 13 13 13 13 13 13 13 12 12 12 11 11 12 11 11 12 12 12 12 12 12 11 11 11 11 11 11 11 11 10 10 10 10 10
14 14 13 13 13 13 13 13 13 13 13 12 12 12 12 11 11 11 11 11 11 11 11 11 11 11 11 11 11 11 11 11 10 10 10 10 10 10
13 13 13 13 13 13 13 13 13 13 13 12 12 12 11 11 11 11 11 11 11 11 11 11 11 11 11 11 11 11 11 10 10 10 10 10 10 10
13 13 13 13 13 13 13 13 13 12 12 12 12 11 11 11 11 11 10 10 10 11 11 11 11 11 11 11 10 10 10 10 10 10 10 10 9 9
13 13 13 13 13 13 13 12 12 12 12 12 12 12 11 11 11 11 10 10 10 11 11 11 11 11 11 10 10 10 10 10 10 10 10 10 9 9
13 13 13 13 13 12 12 12 12 12 12 12 12 11 11 11 11 11 10 10 10 10 10 10 11 11 10 10 10 10 10 10 10 10 10 9 9 9
13 13 13 13 13 12 12 12 12 12 12 12 11 11 11 11 11 10 10 10 10 10 10 10 10 10 10 10 10 10 10 10 10 10 9 9 9 9
12 13 13 13 13 12 12 12 12 12 12 12 12 12 12 11 11 11 10 10 10 10 10 10 10 10 10 10 10 10 10 10 9 9 9 9 9 9
12 12 12 12 12 12 12 12 12 12 12 12 12 12 12 12 11 11 11 10 10 10 10 9 10 9 10 10 10 10 10 10 9 9 9 9 9 9
12 12 12 12 12 12 12 12 12 12 12 12 12 12 12 11 11 11 11 10 10 10 10 9 9 9 9 10 10 10 10 9 9 9 9 9 9 8
11 11 11 11 12 12 12 11 11 11 12 12 12 12 12 11 11 11 10 10 9 10 10 9 9 9 9 9 9 9 9 9 9 9 9 9 8 8
11 11 11 11 11 11 11 11 11 11 11 11 11 11 11 11 11 11 11 10 10 9 10 9 9 9 9 9 9 9 9 9 9 9 9 8 8 8
10 10 11 11 11 11 11 11 11 11 11 11 11 11 11 11 11 11 10 10 10 10 10 10 9 9 9 8 9 9 9 9 9 8 8 8 8 8
10 10 10 10 11 11 11 11 11 11 11 10 10 10 11 11 11 11 10 10 10 10 10 10 9 9 9 8 8 8 9 8 8 8 8 8 8 8
9 9 10 10 10 10 10 10 10 10 10 10 10 10 10 11 10 10 10 10 10 10 9 9 9 9 9 8 8 8 8 8 8 8 8 8 8 8
9 9 9 9 10 10 10 10 10 9 9 10 10 10 10 10 10 10 10 10 9 9 9 9 9 9 9 8 8 8 8 8 8 8 8 8 7 7
8 8 8 9 9 9 9 9 9 9 9 9 9 9 9 10 10 10 9 9 9 9 9 9 9 9 8 8 8 8 8 8 8 8 7 7 7 7
8 8 8 8 8 8 8 8 8 8 8 9 9 9 9 9 9 9 9 9 9 9 9 9 9 8 8 8 8 8 8 8 8 7 7 7 7 7
7 7 8 8 8 8 8 8 8 8 8 8 8 8 9 9 9 9 9 8 8 8 8 8 8 8 7 7 8 8 8 7 7 7 7 7 7 7
7 7 7 7 7 8 8 8 8 8 8 8 8 8 8 8 8 8 8 8 8 8 8 8 8 8 8 8 7 8 8 7 7 7 7 7 7 7
7 7 7 7 7 7 7 7 7 7 7 7 7 8 8 8 8 8 8 8 8 7 7 7 8 8 7 7 7 7 7 7 7 7 6 6 6 6
6 6 6 6 7 7 7 7 7 7 7 7 7 7 7 7 7 7 7 7 7 7 7 7 7 7 7 7 7 7 7 7 7 7 6 6 6 5
6 6 6 6 6 7 7 7 7 7 7 7 7 7 7 7 7 6 6 6 6 6 6 6 6 6 6 6 6 6 6 6 6 6 6 6 6 6
Wind_Speed
4 5 4 3 4 4 4 4 3 3 3 3 2 3 4 5 5 4 6 8 8 8 9 9 10 10 10 10 10 10 9 9 9 10 10 10 10 11
3 4 4 4 4 4 4 4 4 3 2 2 2 4 5 5 4 4 6 8 7 7 8 8 8 9 9 9 9 9 9 8 8 8 8 9 9 9
5 5 5 4 4 4 5 4 4 3 3 3 3 5 6 5 5 4 4 4 6 7 6 6 7 7 8 8 8 8 8 8 8 8 8 8 8 8
5 5 5 5 5 5 5 5 5 4 4 5 5 5 6 5 5 4 4 3 4 7 6 5 5 6 6 6 6 7 7 7 7 7 7 7 7 7
5 5 6 6 6 5 6 5 5 5 4 5 5 5 5 5 5 4 4 3 3 6 5 5 4 4 4 4 4 5 5 6 6 6 6 6 7 7
5 6 6 6 7 6 6 6 6 6 5 6 6 6 5 6 6 5 4 4 3 4 4 4 4 3 3 2 2 3 3 4 4 5 5 5 5 5
6 6 5 5 4 5 5 6 7 6 6 6 7 6 6 7 7 6 5 4 4 4 3 4 4 4 4 3 3 2 2 2 2 3 3 3 3 4
6 5 4 5 6 7 6 6 7 8 8 7 7 8 9 9 7 7 6 5 4 4 4 4 4 3 3 3 4 4 3 3 3 2 1 1 1 1
7 6 4 5 6 7 8 9 8 8 8 8 9 9 9 9 9 9 8 7 5 5 5 4 4 4 4 3 5 5 5 4 4 4 4 2 2 1
7 7 6 6 6 6 7 9 9 10 10 9 9 8 8 8 9 8 7 6 4 4 5 3 4 4 4 5 7 7 7 7 6 5 5 5 4 4
8 7 7 7 4 6 7 8 8 8 8 8 6 4 2 6 8 7 7 7 5 5 6 4 3 4 4 4 6 8 9 9 8 7 6 6 7 7
6 7 6 6 5 7 8 8 9 8 7 7 7 6 7 9 12 10 8 8 6 5 6 5 4 3 3 4 4 6 7 9 10 9 8 8 7 7
6 6 5 4 5 7 9 8 7 6 7 8 7 7 7 7 9 10 9 7 7 5 5 6 5 5 4 3 3 4 5 5 7 8 10 10 9 8
6 6 4 4 6 7 7 6 5 5 6 6 7 7 7 7 7 9 9 9 7 6 6 7 5 5 5 4 3 3 4 5 6 6 6 8 10 11
6 4 4 4 5 6 6 7 6 6 6 6 7 7 7 7 7 7 7 7 6 6 6 8 7 6 6 6 5 4 4 4 6 5 5 6 6 7
6 4 5 6 5 5 5 6 6 6 7 7 7 6 6 5 6 6 6 6 5 5 6 8 8 7 7 7 6 5 5 4 4 5 5 6 7 7
6 5 5 5 5 5 6 6 6 6 6 6 6 6 6 6 6 6 6 6 7 7 6 6 7 7 7 6 6 6 6 5 5 5 5 5 6 7
6 6 6 6 6 6 6 7 6 6 6 6 6 6 7 7 7 6 6 7 7 7 7 6 6 5 4 5 8 8 7 6 5 6 6 6 6 6
7 7 7 7 7 7 7 7 7 7 6 6 6 7 7 7 7 7 8 8 8 7 7 6 7 7 7 8 7 11 8 6 6 6 6 6 7 6
7 8 8 7 7 7 7 7 7 6 6 6 6 6 7 7 8 8 8 9 8 8 7 7 8 9 9 8 6 6 12 8 6 7 6 6 6 6
7 7 7 7 7 7 7 7 7 7 7 7 7 7 7 8 8 8 8 10 9 8 9 9 8 9 6 4 5 5 6 10 9 7 6 6 5 6
7 8 7 7 7 7 7 6 7 7 7 7 7 7 7 7 8 9 8 8 9 9 9 7 6 7 7 8 9 8 6 6 8 9 9 8 5 5
8 8 7 7 7 7 7 7 8 7 7 7 7 7 7 7 7 7 8 8 8 9 8 7 6 7 8 8 8 7 8 7 5 6 7 11 13 12
Wind_Direction
220 220 223 215 208 207 210 209 212 204 196 172 162 148 143 125 133 127 110 97 85 79 75 72 70 69 68 66 64 65 67 66 63 59 57 60 61 60
217 223 219 213 205 203 212 226 232 225 212 170 167 158 151 145 146 134 115 117 100 89 83 77 75 74 72 68 65 65 65 64 64 62 60 62 61 60
208 211 214 210 201 200 204 210 213 207 194 168 153 155 164 158 152 149 142 140 116 106 96 87 82 77 73 69 67 66 66 64 64 63 62 64 62 61
221 215 215 207 206 206 206 209 204 203 196 179 165 170 175 168 162 162 157 147 127 119 116 106 96 89 80 73 70 71 70 68 67 67 64 65 63 62
228 226 222 211 208 202 206 208 203 199 194 186 174 166 176 174 169 173 173 164 150 139 135 128 114 103 96 89 80 77 76 74 71 71 69 64 62 59
229 231 227 221 213 204 204 206 201 195 194 192 180 176 178 182 186 186 183 182 185 168 162 159 152 149 133 116 110 105 95 88 82 77 73 70 68 60
230 230 230 228 229 215 214 207 201 199 198 197 192 184 185 187 197 197 195 187 188 190 187 184 182 191 184 180 178 167 152 133 114 95 83 78 78 71
231 233 230 221 211 211 222 226 220 209 205 205 204 204 202 199 196 198 196 194 198 189 203 197 195 205 201 194 164 172 187 187 180 173 150 124 103 93
236 232 234 231 216 217 208 211 223 232 229 223 218 217 210 200 195 199 203 208 210 173 194 207 201 215 207 195 172 189 201 203 206 206 207 210 214 205
238 235 232 234 225 225 218 215 219 220 222 228 231 228 218 202 199 203 202 204 202 177 193 216 207 220 209 199 184 200 212 214 215 218 221 222 225 229
239 239 236 233 212 221 226 221 219 220 217 229 253 255 206 188 191 192 191 196 206 201 196 219 220 225 224 218 195 199 213 218 222 226 230 235 231 228
240 240 234 240 214 216 225 225 223 220 211 208 220 220 207 192 193 202 198 206 214 212 193 205 212 211 224 214 208 202 210 215 219 225 228 233 234 235
241 239 233 211 224 227 234 230 231 231 219 212 211 209 201 197 196 206 209 213 220 225 187 196 211 213 227 222 220 213 215 215 213 222 226 229 232 236
244 241 232 207 222 228 231 227 218 225 222 215 209 209 204 202 200 201 208 213 225 232 197 199 214 214 222 228 229 211 219 224 225 229 230 218 222 231
247 245 232 209 218 226 222 210 207 215 217 217 213 214 210 207 198 195 204 209 217 221 212 211 218 217 226 234 233 226 227 227 224 234 236 229 226 225
241 221 209 212 230 240 218 213 221 219 220 224 220 216 205 199 198 195 196 195 206 212 212 214 218 221 228 235 236 234 231 224 220 229 238 243 240 236
226 223 223 220 222 226 226 225 222 220 222 227 223 216 205 200 201 197 199 201 211 213 205 204 212 220 233 237 233 233 233 234 232 231 236 245 245 241
217 226 225 226 226 226 228 226 221 220 222 222 224 220 210 206 204 198 199 206 213 217 211 198 192 200 219 240 233 236 235 236 235 227 227 240 249 245
220 228 229 230 231 231 233 230 226 224 221 222 224 223 215 211 207 203 204 209 216 217 215 204 202 206 222 238 225 216 230 232 229 228 229 236 250 253
230 233 233 234 234 232 233 235 230 224 221 221 223 224 215 214 213 211 209 211 215 217 217 211 212 216 225 238 244 224 218 227 227 232 236 242 251 265
232 236 236 236 236 235 235 235 229 225 223 221 223 223 218 217 218 218 217 213 215 216 219 221 222 221 232 238 239 234 223 222 233 238 237 239 248 253
235 236 237 238 238 237 234 234 231 228 227 227 228 223 219 222 222 221 220 217 218 222 227 227 209 203 215 225 233 237 234 220 228 245 248 245 246 248
237 238 238 237 237 237 233 230 231 229 228 228 230 226 218 223 226 226 224 221 221 223 223 218 209 208 219 228 236 239 238 232 229 233 242 241 245 257
Height
1551 1551 1552 1553 1554 1554 1555 1556 1558 1558 1559 1558 1558 1559 1559 1559 1559 1559 1559 1558 1557 1557 1555 1554 1553 1553 1552 1551 1550 1549 1547 1546 1545 1544 1542 1541 1539 1538
1548 1549 1550 1551 1551 1552 1553 1554 1555 1556 1557 1557 1557 1557 1558 1558 1558 1559 1558 1557 1557 1556 1555 1555 1554 1553 1552 1551 1550 1549 1548 1547 1546 1545 1543 1542 1541 1539
1547 1547 1548 1548 1549 1550 1551 1552 1553 1554 1554 1555 1555 1556 1556 1557 1557 1558 1558 1557 1556 1556 1555 1554 1554 1553 1552 1551 1550 1549 1548 1547 1546 1545 1544 1543 1542 1540
1545 1545 1546 1546 1547 1548 1548 1550 1550 1552 1553 1553 1554 1554 1555 1556 1556 1556 1557 1557 1556 1555 1555 1554 1553 1553 1552 1551 1550 1549 1548 1547 1546 1545 1544 1543 1542 1541
1542 1543 1544 1544 1544 1545 1546 1547 1548 1549 1550 1551 1552 1552 1553 1554 1554 1555 1555 1555 1555 1554 1554 1553 1553 1552 1551 1551 1550 1549 1548 1547 1546 1545 1544 1543 1542 1541
1540 1540 1541 1541 1542 1543 1543 1544 1545 1546 1547 1549 1549 1550 1551 1551 1552 1553 1553 1553 1553 1553 1553 1552 1551 1551 1550 1550 1549 1548 1547 1547 1546 1545 1544 1543 1543 1542
1536 1537 1538 1538 1539 1540 1541 1542 1543 1544 1544 1546 1547 1547 1548 1548 1549 1550 1551 1551 1551 1551 1551 1551 1550 1549 1549 1548 1548 1547 1547 1546 1545 1545 1544 1543 1542 1541
1533 1534 1534 1534 1535 1536 1537 1538 1539 1540 1541 1542 1543 1544 1545 1546 1546 1547 1548 1549 1549 1549 1549 1549 1548 1548 1547 1547 1546 1546 1545 1545 1544 1544 1543 1543 1542 1541
1529 1530 1530 1531 1531 1532 1533 1534 1535 1536 1538 1539 1540 1541 1542 1542 1543 1544 1545 1546 1547 1546 1547 1547 1547 1546 1546 1545 1545 1544 1544 1543 1543 1542 1542 1541 1541 1540
1525 1526 1526 1527 1527 1528 1529 1530 1531 1532 1533 1535 1536 1538 1539 1539 1540 1541 1542 1543 1544 1544 1544 1545 1544 1544 1544 1543 1543 1542 1542 1542 1541 1541 1540 1540 1539 1539
1520 1521 1522 1522 1523 1524 1525 1526 1526 1527 1528 1530 1531 1532 1534 1535 1536 1537 1538 1539 1540 1541 1541 1542 1542 1542 1541 1541 1540 1540 1540 1539 1539 1539 1538 1538 1537 1537
1516 1516 1517 1517 1518 1519 1520 1521 1522 1523 1524 1525 1526 1528 1529 1530 1532 1533 1534 1536 1537 1538 1537 1538 1538 1539 1539 1538 1538 1537 1537 1537 1536 1536 1536 1535 1534 1534
1511 1511 1512 1512 1513 1514 1515 1516 1517 1519 1520 1521 1522 1523 1524 1525 1527 1528 1530 1531 1533 1534 1534 1534 1534 1535 1536 1535 1535 1534 1534 1534 1533 1533 1533 1532 1531 1531
1506 1506 1507 1507 1508 1509 1510 1511 1512 1514 1515 1516 1517 1518 1519 1520 1522 1523 1525 1526 1528 1529 1529 1530 1530 1531 1531 1532 1531 1531 1531 1530 1530 1530 1529 1529 1528 1527
1501 1501 1502 1502 1503 1504 1505 1506 1507 1508 1509 1510 1511 1512 1514 1516 1517 1519 1520 1522 1523 1524 1524 1525 1526 1526 1527 1527 1527 1527 1527 1526 1526 1526 1526 1525 1524 1523
1495 1496 1497 1497 1498 1499 1500 1501 1502 1503 1504 1505 1506 1508 1509 1510 1512 1513 1514 1516 1517 1518 1519 1520 1521 1522 1522 1523 1523 1523 1523 1523 1522 1522 1521 1521 1520 1519
1490 1491 1491 1492 1492 1493 1494 1495 1496 1497 1498 1499 1501 1502 1503 1505 1506 1508 1509 1510 1511 1512 1513 1515 1516 1517 1517 1518 1518 1518 1518 1518 1518 1518 1517 1516 1515 1515
1486 1485 1486 1486 1487 1488 1489 1490 1491 1491 1492 1493 1494 1496 1497 1498 1500 1502 1503 1504 1506 1507 1508 1509 1510 1511 1512 1512 1513 1513 1513 1513 1513 1512 1512 1511 1511 1510
1479 1480 1480 1481 1482 1483 1483 1484 1485 1486 1487 1487 1488 1489 1491 1492 1494 1495 1497 1498 1500 1501 1503 1504 1504 1505 1506 1507 1507 1508 1508 1508 1508 1507 1507 1506 1506 1505
1473 1473 1474 1475 1476 1477 1478 1478 1479 1480 1481 1481 1482 1483 1484 1486 1487 1489 1491 1492 1494 1495 1496 1497 1498 1499 1500 1502 1502 1501 1502 1502 1502 1502 1502 1501 1500 1500
1466 1467 1468 1469 1470 1471 1472 1472 1473 1474 1475 1476 1476 1477 1478 1480 1481 1483 1484 1486 1488 1489 1489 1490 1491 1494 1495 1496 1496 1495 1496 1496 1496 1496 1496 1496 1495 1494
1460 1461 1462 1463 1464 1465 1465 1466 1467 1468 1469 1470 1471 1471 1472 1473 1475 1476 1478 1479 1481 1482 1483 1485 1486 1487 1488 1488 1488 1489 1489 1490 1490 1490 1490 1490 1489 1488
1454 1455 1456 1457 1458 1458 1459 1460 1461 1462 1463 1464 1465 1465 1466 1467 1469 1470 1471 1473 1474 1476 1477 1478 1479 1480 1480 1482 1482 1483 1483 1483 1483 1483 1483 1483 1483 1483